Temperature
17 18 19 19 16 14 16 17 17 18 19 20 20 19 17 18 18 19 20 19 19 18 17 15 14 14 13 13 12 12 12 12 12 11 11 11 10 10 10 10 10 10 10 10 10 10 11 10 10
17 18 19 19 14 15 16 17 17 18 20 20 20 20 19 19 20 20 20 19 18 18 17 16 15 14 14 13 12 12 12 12 11 11 11 11 10 10 10 10 10 10 10 10 10 10 11 11 10
18 18 19 14 14 15 17 18 17 19 20 20 20 20 20 20 20 20 20 19 18 18 17 16 15 14 13 13 13 12 12 12 11 11 11 10 10 10 10 10 10 10 10 10 10 10 11 11 11
18 19 18 14 16 16 17 18 18 19 20 20 20 19 20 20 20 20 20 19 18 18 17 16 15 14 13 13 12 12 12 12 11 11 10 10 10 10 10 10 10 10 10 10 10 10 11 11 11
18 18 15 15 17 17 16 18 18 18 19 20 20 18 19 20 20 20 19 19 18 18 17 16 15 14 13 13 12 12 12 11 11 11 10 10 10 10 10 10 10 10 10 10 10 10 10 10 10
18 15 14 15 16 17 17 19 19 18 19 19 19 19 20 20 20 20 19 19 18 17 17 16 14 14 13 13 12 12 11 11 11 10 10 10 10 10 10 10 10 10 10 10 10 10 10 10 10
17 13 15 16 16 17 18 19 19 18 19 19 20 18 19 20 20 19 19 18 17 17 16 16 14 13 13 12 12 12 11 11 10 10 10 10 10 9 9 9 9 9 9 10 10 10 10 9 10
18 14 15 15 16 18 18 19 19 19 19 19 19 19 19 20 19 19 18 17 17 16 16 15 14 13 12 12 12 11 11 11 10 10 10 10 9 9 9 9 9 9 9 9 9 9 9 9 9
18 14 15 16 17 18 18 19 19 19 19 19 20 20 20 20 19 19 18 17 17 16 15 15 14 13 12 12 11 11 11 10 10 10 10 9 9 9 9 9 8 8 8 8 8 8 8 8 9
17 14 16 17 17 18 18 19 19 19 18 19 19 20 20 19 19 19 18 18 17 16 16 15 14 13 12 12 11 11 11 10 10 10 10 9 9 9 9 8 8 8 8 8 8 8 8 8 8
17 15 16 17 18 18 18 19 19 19 17 19 20 20 19 19 18 18 18 18 17 17 16 15 14 13 12 12 11 11 11 10 10 10 9 9 9 9 9 8 8 8 8 8 8 8 8 8 8
16 16 17 18 19 18 18 18 18 18 19 20 19 19 19 19 18 18 18 18 17 16 16 15 14 13 12 12 11 11 11 10 10 10 9 9 9 9 9 8 8 8 8 8 8 8 7 7 7
16 17 18 18 18 18 18 17 18 18 19 19 19 18 18 18 18 18 17 17 16 16 16 15 14 13 12 12 11 11 11 10 10 10 9 9 9 9 9 9 8 8 8 8 8 8 8 7 7
17 17 17 17 17 17 16 16 16 18 18 18 18 18 18 18 17 17 17 17 16 16 16 15 14 13 12 12 11 11 10 10 10 10 10 9 9 9 9 9 9 8 8 8 8 8 8 7 7
17 16 15 16 16 16 16 15 14 18 18 17 17 17 17 17 17 17 17 17 16 16 15 15 14 13 12 12 11 11 10 10 10 10 9 9 9 9 9 9 9 9 8 8 8 8 7 7 7
15 14 14 15 15 15 16 15 15 18 17 17 17 17 17 17 17 17 16 16 16 16 15 15 14 13 12 12 11 11 10 10 10 10 9 9 9 9 9 9 9 8 8 8 8 8 7 7 7
14 13 14 14 15 15 15 14 14 16 16 16 16 16 16 16 16 16 16 16 16 16 15 15 14 13 12 12 11 11 10 10 10 10 10 9 9 9 9 9 8 8 8 8 8 7 7 7 7
14 13 14 14 15 14 14 13 13 16 15 15 15 16 16 16 16 16 16 16 15 15 15 14 14 13 12 11 11 11 10 10 10 10 9 9 9 9 9 9 8 8 8 8 7 7 7 7 7
14 13 13 13 14 14 13 12 14 14 13 13 14 15 15 16 16 15 15 15 15 15 14 14 13 13 12 11 11 11 10 10 10 10 9 9 9 9 9 8 8 8 8 7 7 7 7 7 6
13 13 13 12 13 13 12 12 13 12 12 14 14 15 16 15 15 15 15 14 14 14 14 13 13 12 12 11 11 11 10 10 10 9 9 9 9 9 8 8 8 8 7 7 7 7 6 6 6
12 12 13 13 13 13 12 12 12 12 13 13 14 15 15 15 15 15 14 14 14 14 13 13 13 12 12 11 11 11 10 10 10 9 9 9 9 8 8 8 8 7 7 7 6 6 6 6 5
12 13 13 13 12 11 12 11 12 12 12 11 12 12 14 14 15 15 14 14 14 13 13 13 12 12 12 11 11 11 11 10 10 10 9 9 9 8 8 7 7 7 7 6 6 6 5 5 5
13 13 13 13 12 11 11 11 12 12 12 12 11 12 13 14 14 14 14 14 13 13 12 12 12 12 12 11 11 11 11 10 10 9 9 9 8 8 7 7 7 6 6 6 5 5 5 5 4
13 12 11 9 10 10 10 10 11 11 13 13 12 12 12 13 13 13 13 13 13 12 12 12 12 12 11 11 11 11 11 10 10 9 9 8 8 8 7 7 6 6 6 5 5 5 4 4 4
13 12 11 11 10 10 10 10 11 12 12 12 12 13 12 12 13 13 13 12 12 12 12 12 12 12 11 11 11 11 10 10 9 9 8 8 8 7 7 6 6 6 5 5 5 4 4 4 4
11 12 11 11 10 10 10 9 11 12 12 13 13 13 12 12 12 13 13 13 13 12 12 12 12 11 11 11 11 10 10 10 9 9 8 8 7 7 6 6 6 5 5 5 4 4 4 3 3
11 11 11 10 10 10 10 10 11 13 13 12 12 11 11 12 12 13 13 12 12 12 12 12 12 11 11 11 10 10 10 9 9 8 8 7 7 6 6 5 5 5 4 4 4 4 3 3 3
11 10 9 10 10 10 10 10 12 14 14 12 11 10 11 12 12 12 12 12 12 12 12 11 11 11 11 10 10 10 9 9 8 8 7 7 6 6 5 5 5 4 4 4 3 3 3 2 2
10 10 10 9 9 10 10 11 12 12 13 11 11 12 12 13 13 13 13 13 12 12 11 11 11 10 10 10 9 9 9 8 8 7 7 6 6 5 5 5 4 4 4 3 3 3 2 2 2
11 10 10 10 9 8 9 11 13 12 11 11 12 13 14 14 13 13 13 12 12 12 11 11 11 10 10 9 9 8 8 8 7 7 6 6 5 5 5 4 4 3 3 3 2 2 2 1 1
Wind_Speed
5 3 2 4 6 5 1 3 3 2 3 1 2 7 9 6 4 3 0 10 7 10 18 19 19 17 16 14 13 13 12 12 11 11 11 11 11 11 11 11 11 11 12 12 13 13 13 13 12
2 1 5 5 5 2 4 4 5 5 3 4 4 5 5 2 1 3 3 9 9 15 17 17 20 18 16 15 14 13 12 11 11 11 11 11 10 10 10 10 10 11 11 11 12 12 12 11 12
0 3 5 5 4 6 5 5 6 3 2 4 3 2 3 4 2 4 5 10 10 14 16 18 20 19 17 15 15 14 12 11 11 10 10 10 10 9 9 9 9 10 10 10 11 11 11 11 11
3 5 5 5 3 5 4 4 4 1 1 2 5 3 0 0 1 3 8 10 11 11 15 18 20 19 17 16 15 14 13 12 11 10 9 9 9 8 8 8 8 8 9 9 9 10 10 10 9
4 5 5 2 3 4 4 3 3 3 3 2 5 6 2 2 2 6 10 11 13 10 14 17 19 18 17 17 15 14 12 12 11 10 9 8 8 7 7 7 7 7 7 8 8 8 9 8 8
5 5 4 1 4 4 3 1 3 3 2 3 7 6 3 1 4 6 9 10 10 10 13 16 19 18 17 16 15 14 12 12 11 10 9 8 7 6 6 5 5 5 5 6 6 7 7 7 7
5 5 4 2 2 3 2 1 3 3 3 3 7 7 3 1 4 7 8 8 8 11 12 12 16 17 17 16 16 14 12 11 10 10 9 8 6 6 5 4 3 3 3 4 4 5 5 6 6
5 5 3 1 1 3 3 0 1 3 3 1 5 7 6 4 7 9 8 7 7 7 8 10 12 15 15 16 16 15 13 12 10 10 9 8 6 5 4 3 2 1 1 2 3 4 5 5 6
4 5 2 3 3 3 2 1 2 1 3 1 1 3 1 7 10 10 7 6 7 8 7 8 9 12 14 15 15 15 13 12 11 10 10 8 6 4 4 4 3 2 2 2 3 4 5 5 5
5 3 5 4 4 3 1 1 1 2 0 1 2 0 4 7 10 10 10 11 12 13 10 7 8 10 12 12 13 13 12 11 10 9 9 8 7 6 5 5 5 4 4 4 4 5 5 5 5
4 6 4 3 3 3 2 2 1 3 5 8 8 7 7 6 8 10 10 11 12 12 12 10 8 11 11 10 10 10 10 10 10 10 10 9 7 6 6 5 5 5 5 5 6 6 6 6 6
3 4 4 3 2 2 3 3 3 6 9 7 7 6 8 9 10 11 11 10 9 10 13 11 9 9 11 11 9 9 9 8 8 9 10 9 6 5 5 5 6 6 6 6 6 6 7 7 8
3 3 3 4 4 4 4 6 5 7 7 1 3 6 8 9 8 7 6 7 8 11 13 12 10 9 10 9 8 8 8 9 9 9 9 10 7 6 6 6 6 6 7 6 6 6 6 7 7
2 2 4 5 5 4 6 6 4 10 5 4 5 8 8 8 7 5 6 7 9 11 12 12 12 10 10 8 7 7 9 9 8 8 8 9 9 7 6 5 5 6 6 6 6 6 5 5 6
1 3 7 5 3 3 3 7 9 9 5 7 7 7 6 6 5 6 6 7 8 9 10 12 12 10 9 8 8 8 8 8 7 7 8 8 8 7 5 4 3 4 5 4 4 4 4 3 4
3 4 4 6 2 1 5 9 10 3 7 9 8 7 7 5 5 4 4 5 6 7 9 11 10 10 9 7 7 7 7 7 5 5 5 5 5 5 4 3 2 3 2 1 1 1 2 3 3
3 2 4 7 3 2 4 9 9 2 7 9 9 8 7 6 4 3 2 2 5 7 9 10 10 10 9 7 7 6 6 5 4 5 4 3 3 3 3 2 1 0 1 0 0 0 1 2 4
5 4 5 6 4 2 6 12 13 6 8 11 10 9 8 8 7 2 1 2 4 6 8 9 9 9 8 6 6 5 5 4 5 5 5 5 4 4 4 3 2 2 2 1 1 1 1 2 3
5 5 7 8 5 4 10 14 17 11 9 11 11 11 11 10 4 2 2 4 6 6 8 9 10 9 8 5 5 5 4 3 3 5 6 6 5 5 5 3 3 3 2 2 2 1 2 2 2
4 5 7 8 5 5 8 13 14 11 10 12 13 14 13 9 6 5 4 4 5 7 8 8 9 9 8 6 4 4 4 4 3 4 6 7 6 5 5 4 3 3 2 3 3 2 1 2 2
6 7 8 8 7 5 6 10 9 8 6 8 9 10 11 13 12 9 7 6 6 7 8 9 9 9 8 8 6 5 5 4 3 3 2 4 6 6 6 5 4 3 2 2 1 1 1 1 2
8 9 9 6 4 6 2 7 10 8 9 9 10 10 12 11 10 9 9 8 7 6 6 8 8 8 8 8 8 7 5 4 3 2 2 3 6 6 6 6 5 3 2 1 1 1 1 1 2
9 3 4 3 4 5 3 5 10 7 9 11 10 11 12 12 12 12 10 9 7 7 7 7 8 8 7 7 8 8 6 4 3 3 3 3 4 5 6 5 5 3 2 1 1 1 1 2 2
6 6 5 5 3 4 6 7 9 7 9 9 6 8 11 11 11 10 8 8 7 6 7 8 9 7 7 8 8 9 9 7 6 4 3 2 2 2 4 4 4 3 2 1 1 1 2 2 3
6 5 2 4 2 7 4 5 11 12 9 9 10 9 10 11 12 11 11 11 10 9 9 8 10 8 7 8 7 8 9 8 7 5 4 3 1 1 1 2 1 1 1 2 1 1 2 3 3
8 10 8 6 5 5 3 7 10 11 9 8 8 7 9 11 12 13 13 12 11 11 10 10 10 8 8 8 7 7 7 6 5 5 4 3 2 2 1 0 0 1 2 2 2 2 3 3 4
8 7 7 5 2 4 7 8 11 8 6 5 3 3 9 12 12 12 12 11 11 12 11 11 11 9 9 8 8 7 7 6 6 5 4 3 2 2 2 1 1 2 3 3 2 3 4 4 5
8 10 6 6 5 6 7 6 6 10 9 7 5 6 8 9 10 11 11 12 11 10 9 9 10 10 8 8 8 6 6 6 6 5 4 4 3 2 2 2 2 3 3 4 3 4 5 5 6
7 6 6 6 5 6 5 7 7 8 8 9 9 7 8 11 12 12 11 11 10 9 9 9 9 9 8 8 7 7 6 6 5 5 4 4 3 3 3 3 3 4 5 4 4 5 6 7 7
8 10 9 7 7 6 4 8 8 7 8 8 8 7 7 9 10 10 10 10 10 11 10 10 10 9 9 8 8 7 6 6 5 4 4 4 3 3 3 3 4 5 5 5 6 7 7 7 8
Wind_Direction
339 354 60 56 58 57 197 241 221 243 241 218 139 143 146 153 158 169 317 146 143 150 170 172 164 161 157 151 146 139 130 124 118 113 108 100 94 87 82 76 72 68 63 61 59 56 55 56 56
339 52 57 62 90 109 256 234 214 220 201 118 91 112 124 145 148 136 142 168 151 155 166 169 165 163 160 155 151 144 136 130 125 120 114 106 98 90 83 78 73 70 66 62 60 58 57 56 55
172 51 83 79 119 174 211 218 211 240 176 141 107 86 144 151 154 179 177 159 146 155 164 169 167 165 163 158 155 149 143 139 134 126 118 110 101 93 85 79 74 71 66 62 59 57 56 55 53
83 49 58 81 173 214 225 235 201 182 121 117 131 117 258 36 228 179 141 145 143 154 163 170 168 168 166 162 159 152 147 145 141 133 125 115 106 97 89 82 76 71 67 63 59 56 53 50 48
60 77 67 62 253 256 248 254 192 192 172 136 135 146 211 2 66 125 140 147 149 153 164 173 171 171 169 166 164 158 155 153 147 141 133 124 115 106 98 90 81 74 66 59 55 52 49 45 41
57 68 91 188 281 291 278 234 155 188 167 141 140 152 226 37 119 139 144 147 150 153 163 175 175 175 172 171 169 165 164 161 157 152 144 136 130 124 117 104 92 78 65 56 50 44 40 36 32
102 97 140 184 288 307 323 328 164 165 163 192 159 147 268 297 136 131 129 131 140 153 160 176 180 177 176 176 173 171 172 169 164 162 156 149 145 143 135 122 107 83 58 44 37 30 23 19 17
118 104 110 184 220 273 316 4 137 157 172 124 148 157 215 201 124 111 104 117 137 155 165 177 181 178 176 177 176 175 176 174 172 170 163 159 160 158 148 137 137 107 24 8 3 360 356 357 357
89 78 156 208 201 256 317 58 10 113 113 68 229 204 205 122 121 117 118 136 160 175 180 181 181 176 174 176 179 179 180 181 178 173 169 165 163 161 165 178 211 249 276 299 320 334 339 348 346
89 134 217 219 204 223 269 204 263 109 94 274 279 209 112 133 145 154 166 175 182 188 189 187 181 175 172 176 179 179 180 181 178 175 171 168 175 185 191 208 226 249 274 287 300 314 326 328 316
139 181 225 248 227 217 238 244 212 173 236 225 218 204 161 164 170 179 186 187 192 190 190 189 183 177 173 171 172 173 175 177 178 180 178 179 185 194 203 219 241 254 263 271 282 295 301 298 293
164 226 218 244 222 205 221 238 236 209 229 235 219 183 173 179 191 196 197 196 188 187 194 191 183 178 175 171 171 172 172 176 181 188 190 185 186 199 210 220 237 246 248 256 268 277 284 286 285
204 253 241 250 254 239 239 238 241 246 241 243 149 161 187 196 209 218 214 199 188 193 195 191 184 181 174 168 172 174 177 184 192 196 199 196 194 205 213 223 231 240 243 244 254 264 272 277 282
236 262 291 280 259 238 225 251 232 253 217 183 183 193 205 211 218 219 211 205 197 196 194 189 187 182 173 171 172 178 185 191 195 201 205 205 206 206 207 218 226 238 243 246 250 259 267 276 280
38 340 319 288 249 250 200 274 240 245 170 199 207 210 213 222 226 227 224 213 201 194 187 187 186 177 174 173 175 176 182 185 188 200 206 206 206 204 203 211 231 247 251 253 263 273 273 279 284
60 26 307 295 276 217 168 263 271 228 182 214 219 220 224 231 233 244 243 223 195 179 176 181 181 175 173 168 167 167 171 174 181 188 190 197 201 200 192 199 229 250 242 237 250 266 288 289 293
32 294 267 297 279 180 207 257 278 183 195 223 225 225 228 234 237 247 258 211 179 171 166 168 166 167 164 152 146 140 139 139 142 140 139 149 161 171 165 165 200 162 109 58 335 350 281 296 305
230 233 255 265 284 222 246 259 272 248 217 231 229 228 230 228 227 219 174 133 138 146 149 152 149 150 141 129 119 110 103 98 101 101 101 99 99 107 114 105 85 83 84 49 28 343 316 293 304
184 210 252 260 265 253 255 264 271 264 231 234 229 223 223 226 217 173 137 121 118 124 136 145 146 146 142 137 134 130 123 108 89 80 81 84 87 93 99 94 77 73 79 60 33 18 354 336 342
200 243 266 281 274 232 270 274 269 256 234 226 221 218 213 208 195 181 164 147 140 140 140 141 146 148 149 143 133 125 124 110 94 83 73 70 78 85 93 93 86 76 77 54 44 46 16 339 9
214 217 241 261 310 311 308 296 284 279 249 246 229 215 204 198 193 184 174 165 150 150 151 149 146 144 138 130 116 101 90 82 78 68 60 48 69 79 85 90 91 82 88 72 38 66 89 309 319
236 226 225 250 285 289 334 296 287 277 283 260 238 215 204 196 185 181 177 171 167 161 148 139 139 137 136 138 140 139 138 140 142 128 98 61 65 71 80 88 90 86 84 64 3 68 181 197 282
211 210 190 231 226 283 276 251 282 294 278 268 243 220 208 195 185 183 180 173 163 154 147 139 133 130 133 136 139 132 124 127 124 111 98 75 56 64 73 83 83 76 69 54 9 352 249 212 228
147 85 63 50 79 275 235 213 279 258 246 273 266 223 204 190 182 175 165 155 152 149 145 142 136 132 135 133 135 137 137 139 135 130 121 98 69 55 59 76 77 71 58 19 326 286 271 247 243
130 117 360 326 312 251 238 220 253 257 254 256 267 241 201 184 176 172 170 171 168 165 161 154 146 143 143 139 139 143 145 148 150 152 152 146 128 98 44 59 55 38 354 323 306 283 280 261 254
177 161 177 216 237 280 269 240 257 267 277 275 266 234 187 182 182 182 182 178 175 173 168 162 157 152 153 149 147 145 146 146 151 155 157 162 170 186 192 127 332 315 312 306 297 275 274 263 261
153 192 175 150 208 266 270 277 298 287 289 302 300 200 190 188 186 186 182 180 178 178 177 171 164 158 160 158 150 149 151 152 155 155 156 165 182 192 192 221 277 293 293 287 281 269 274 272 263
156 149 125 155 204 246 271 268 254 286 297 305 281 236 212 192 188 187 186 185 184 181 174 169 167 165 163 161 160 158 159 160 158 157 168 180 191 193 206 244 262 277 283 282 274 272 271 270 268
138 151 156 161 177 186 252 266 232 249 276 282 274 244 213 198 195 193 190 185 178 172 171 173 171 164 164 166 161 156 161 160 159 169 183 189 198 209 230 248 263 273 278 277 274 272 274 271 273
173 174 157 173 214 199 210 265 269 260 276 268 269 250 217 204 197 191 183 176 177 180 180 179 176 174 173 167 162 164 163 162 170 186 198 199 214 226 237 250 263 270 272 272 269 274 276 270 272
Height
1518 1519 1522 1524 1529 1541 1542 1536 1532 1530 1529 1528 1528 1529 1530 1533 1537 1541 1537 1536 1537 1538 1539 1541 1543 1546 1548 1549 1551 1552 1553 1553 1554 1554 1554 1554 1554 1554 1554 1554 1554 1554 1554 1553 1553 1552 1552 1552 1552
1518 1520 1523 1524 1536 1548 1542 1533 1531 1528 1527 1527 1528 1529 1530 1531 1532 1534 1535 1536 1537 1538 1540 1541 1544 1546 1547 1549 1551 1552 1553 1554 1554 1555 1555 1555 1555 1555 1555 1555 1555 1555 1554 1554 1553 1553 1553 1552 1552
1519 1521 1524 1527 1538 1543 1536 1528 1527 1525 1526 1527 1528 1529 1530 1531 1532 1534 1535 1536 1537 1538 1540 1542 1544 1546 1547 1549 1551 1552 1553 1554 1555 1556 1556 1556 1556 1556 1556 1556 1556 1555 1555 1555 1554 1554 1553 1553 1553
1520 1523 1524 1532 1534 1533 1529 1525 1524 1525 1526 1527 1527 1529 1530 1531 1532 1534 1535 1536 1537 1539 1540 1542 1544 1546 1548 1549 1551 1552 1553 1554 1555 1556 1556 1557 1557 1557 1557 1556 1556 1556 1556 1556 1555 1555 1554 1554 1554
1521 1522 1529 1536 1532 1528 1525 1523 1524 1525 1526 1526 1527 1528 1529 1531 1532 1533 1535 1536 1537 1539 1540 1542 1544 1546 1548 1549 1551 1552 1553 1554 1555 1556 1557 1557 1557 1557 1557 1557 1557 1557 1557 1556 1556 1556 1555 1555 1554
1522 1523 1537 1539 1532 1526 1523 1523 1524 1524 1525 1526 1526 1527 1528 1530 1531 1533 1535 1536 1538 1539 1540 1542 1544 1546 1548 1549 1551 1552 1554 1555 1556 1556 1557 1558 1558 1558 1558 1558 1558 1558 1557 1557 1557 1556 1556 1556 1555
1522 1528 1534 1533 1533 1527 1523 1522 1523 1524 1525 1526 1526 1527 1528 1529 1531 1532 1534 1536 1537 1539 1540 1542 1543 1546 1548 1549 1551 1552 1554 1555 1556 1557 1557 1558 1558 1558 1558 1558 1558 1558 1558 1558 1557 1557 1557 1556 1556
1522 1527 1532 1533 1531 1527 1523 1522 1523 1523 1524 1525 1526 1526 1526 1528 1529 1531 1533 1534 1536 1537 1539 1541 1543 1545 1547 1549 1551 1552 1554 1555 1556 1557 1558 1558 1558 1559 1559 1559 1559 1559 1558 1558 1558 1557 1557 1557 1556
1522 1531 1534 1530 1528 1525 1522 1522 1523 1523 1524 1524 1524 1525 1525 1527 1528 1529 1531 1532 1534 1536 1538 1540 1542 1544 1546 1548 1550 1552 1553 1555 1556 1557 1557 1558 1558 1559 1559 1559 1559 1558 1558 1558 1558 1557 1557 1556 1555
1522 1532 1528 1524 1523 1523 1522 1522 1522 1522 1523 1523 1523 1523 1523 1524 1526 1527 1528 1530 1531 1533 1535 1538 1540 1542 1545 1547 1549 1551 1552 1554 1555 1556 1557 1557 1558 1558 1558 1558 1558 1558 1558 1558 1557 1557 1556 1555 1554
1521 1525 1522 1521 1521 1521 1521 1521 1521 1521 1522 1521 1520 1521 1521 1522 1524 1525 1526 1528 1530 1532 1534 1536 1538 1541 1543 1545 1547 1549 1551 1553 1554 1555 1556 1557 1557 1557 1558 1558 1558 1557 1557 1557 1556 1555 1555 1554 1553
1521 1521 1520 1520 1520 1520 1520 1519 1519 1519 1518 1518 1518 1519 1519 1520 1521 1522 1524 1525 1527 1529 1531 1534 1536 1539 1541 1544 1546 1548 1550 1552 1553 1554 1555 1556 1556 1556 1557 1557 1556 1556 1556 1555 1554 1554 1553 1552 1551
1520 1519 1519 1518 1518 1518 1518 1518 1517 1515 1515 1515 1516 1516 1517 1518 1519 1520 1522 1523 1524 1526 1528 1531 1534 1536 1539 1542 1544 1546 1548 1550 1552 1553 1554 1554 1555 1555 1555 1555 1555 1554 1554 1553 1553 1552 1551 1550 1549
1518 1518 1518 1517 1516 1516 1516 1515 1515 1510 1512 1512 1512 1513 1514 1515 1517 1517 1518 1519 1520 1523 1525 1528 1531 1534 1537 1540 1542 1545 1547 1549 1550 1551 1552 1553 1553 1553 1553 1553 1553 1552 1552 1551 1550 1549 1548 1547 1546
1517 1518 1517 1515 1514 1514 1515 1515 1510 1506 1508 1508 1509 1510 1511 1512 1514 1514 1515 1516 1517 1519 1522 1525 1528 1532 1535 1538 1541 1543 1545 1547 1548 1549 1550 1550 1551 1551 1551 1551 1550 1550 1549 1548 1547 1546 1545 1544 1542
1518 1522 1524 1516 1513 1513 1517 1517 1505 1505 1505 1505 1506 1507 1508 1509 1510 1511 1512 1513 1514 1516 1519 1522 1526 1529 1533 1536 1539 1541 1543 1545 1546 1547 1548 1548 1548 1548 1548 1548 1548 1547 1546 1545 1544 1543 1541 1540 1538
1524 1529 1526 1519 1513 1513 1515 1514 1503 1502 1502 1502 1502 1503 1505 1506 1507 1508 1509 1510 1511 1513 1516 1519 1523 1527 1530 1534 1537 1539 1541 1543 1544 1545 1545 1546 1546 1546 1545 1545 1544 1544 1543 1542 1540 1539 1538 1536 1534
1527 1527 1526 1523 1514 1514 1515 1511 1502 1500 1500 1499 1499 1500 1501 1502 1504 1505 1506 1507 1509 1511 1514 1517 1520 1524 1528 1531 1534 1537 1539 1540 1541 1542 1543 1543 1543 1543 1542 1542 1541 1540 1539 1538 1537 1536 1534 1532 1530
1519 1523 1524 1520 1513 1514 1513 1508 1499 1495 1496 1494 1493 1494 1495 1498 1501 1502 1504 1505 1507 1509 1511 1514 1518 1522 1525 1528 1531 1534 1536 1538 1539 1540 1540 1540 1540 1540 1539 1539 1538 1537 1536 1535 1534 1532 1531 1529 1526
1518 1522 1523 1518 1512 1513 1511 1505 1495 1489 1488 1486 1485 1486 1489 1493 1496 1498 1500 1502 1505 1507 1510 1513 1516 1519 1523 1526 1529 1532 1534 1535 1536 1537 1537 1538 1537 1537 1536 1536 1535 1534 1533 1532 1530 1529 1528 1526 1524
1518 1521 1519 1518 1513 1510 1511 1505 1493 1484 1481 1480 1479 1480 1483 1486 1490 1494 1497 1499 1502 1505 1508 1511 1514 1518 1521 1524 1527 1529 1531 1533 1534 1535 1535 1535 1535 1534 1534 1533 1532 1531 1530 1529 1527 1526 1525 1523 1521
1517 1512 1513 1514 1518 1521 1515 1518 1496 1486 1481 1476 1474 1475 1476 1480 1485 1489 1493 1496 1499 1503 1506 1509 1513 1516 1519 1522 1524 1526 1528 1530 1531 1532 1533 1533 1532 1532 1531 1530 1529 1528 1527 1526 1525 1523 1521 1520 1518
1508 1506 1511 1513 1516 1521 1517 1519 1499 1486 1481 1472 1468 1469 1471 1475 1480 1485 1489 1494 1497 1501 1504 1507 1511 1514 1517 1520 1522 1524 1526 1527 1529 1530 1530 1530 1530 1529 1529 1528 1527 1526 1524 1523 1521 1520 1518 1516 1514
1503 1509 1514 1520 1522 1526 1516 1520 1504 1486 1475 1468 1465 1465 1467 1471 1476 1482 1487 1491 1495 1498 1502 1505 1508 1512 1515 1517 1520 1522 1524 1525 1526 1527 1527 1528 1527 1527 1526 1525 1524 1523 1521 1520 1518 1516 1514 1513 1511
1503 1514 1525 1525 1528 1524 1512 1514 1499 1473 1468 1466 1464 1462 1464 1468 1472 1478 1482 1487 1491 1495 1499 1503 1506 1509 1512 1515 1517 1519 1521 1523 1524 1524 1525 1525 1524 1524 1523 1522 1521 1519 1518 1516 1514 1512 1510 1508 1506
1501 1506 1520 1525 1526 1521 1511 1511 1487 1468 1464 1462 1460 1459 1461 1464 1469 1474 1479 1484 1488 1493 1497 1500 1504 1507 1510 1512 1515 1517 1518 1520 1521 1521 1522 1521 1521 1520 1519 1518 1517 1515 1514 1512 1510 1508 1505 1503 1501
1499 1503 1502 1514 1517 1519 1511 1500 1482 1463 1461 1460 1459 1458 1458 1461 1466 1471 1476 1481 1485 1490 1494 1498 1501 1504 1507 1510 1512 1514 1515 1517 1518 1518 1518 1518 1517 1517 1516 1514 1513 1511 1509 1507 1505 1503 1500 1498 1495
1488 1495 1507 1512 1519 1519 1509 1501 1488 1468 1462 1460 1458 1458 1458 1461 1464 1469 1474 1478 1483 1488 1492 1496 1499 1502 1505 1507 1509 1511 1513 1514 1514 1515 1515 1514 1514 1513 1512 1510 1509 1507 1505 1502 1500 1497 1495 1492 1489
1491 1495 1497 1505 1510 1513 1512 1497 1472 1467 1462 1460 1457 1456 1457 1459 1462 1466 1470 1475 1480 1485 1489 1492 1496 1499 1501 1504 1506 1508 1509 1510 1511 1511 1511 1510 1510 1509 1507 1506 1504 1502 1499 1497 1494 1491 1489 1486 1483
1479 1484 1491 1501 1505 1508 1507 1493 1462 1462 1459 1457 1455 1454 1455 1457 1460 1464 1468 1472 1476 1480 1484 1488 1492 1495 1498 1500 1502 1504 1506 1506 1507 1507 1507 1506 1505 1504 1503 1501 1499 1496 1494 1491 1488 1485 1482 1479 1476